Temp
79 79 79 79 80 81 81 81 80 81 81 80 79 80 80 82 83 82 83 82 82 81 81 80 81 81 82 81 80 80 80 79 80 80 80 80 79 81 84 82 81 80
80 80 81 80 80 81 81 82 81 81 80 80 81 81 81 83 83 83 83 82 82 82 82 82 81 80 80 80 80 80 79 79 79 84 80 80 80 81 82 81 82 80
80 80 80 80 81 81 83 83 82 81 82 82 83 83 83 84 82 82 82 83 82 82 82 81 81 81 81 80 80 79 79 79 78 81 80 79 80 80 80 83 81 82
80 81 82 82 82 82 82 82 81 82 83 82 82 85 86 87 82 83 81 84 82 81 82 82 82 82 81 80 80 79 79 79 80 80 80 80 80 81 81 81 82 81
81 81 82 82 82 82 82 82 83 82 82 83 84 82 84 80 82 81 81 82 82 81 81 82 81 82 81 80 80 80 80 79 80 80 79 79 79 81 82 82 80 81
81 81 81 82 82 81 83 82 82 83 83 83 84 83 84 82 83 83 81 82 82 82 83 82 81 82 83 81 80 80 80 81 81 79 79 79 80 81 85 83 81 80
82 82 82 82 83 82 83 82 82 83 84 84 83 83 84 83 83 83 82 83 83 81 82 81 80 80 81 81 79 80 80 79 79 80 79 79 79 80 82 81 80 80
84 83 83 82 84 83 82 83 83 82 84 83 83 84 84 84 83 84 83 83 83 82 81 81 81 80 81 81 80 79 80 83 81 79 79 79 79 78 80 82 81 79
80 84 84 83 84 85 84 85 85 84 83 85 84 85 84 84 83 84 81 82 83 81 82 80 80 82 82 80 80 80 80 81 82 79 79 79 79 79 80 80 80 79
77 79 84 85 85 85 85 86 87 86 84 85 86 85 85 84 85 85 82 80 82 81 81 81 80 81 82 81 81 81 80 80 80 79 80 80 80 80 80 80 79 79
78 78 79 84 86 86 87 88 88 88 87 86 86 86 86 85 83 84 83 80 83 82 81 81 81 81 81 82 81 82 82 82 81 79 79 80 80 80 82 80 80 80
77 79 81 81 82 85 88 88 89 88 87 88 88 87 85 87 85 85 85 82 82 82 81 81 80 81 81 81 83 82 81 82 82 81 80 80 81 81 81 81 81 80
77 80 78 78 79 80 81 84 87 90 89 88 89 89 88 86 87 85 84 84 83 83 83 81 80 80 80 80 81 82 81 81 82 81 81 81 80 81 83 83 82 82
76 75 76 78 78 78 79 81 83 84 87 88 88 88 89 89 87 87 85 85 85 84 84 83 81 81 79 79 81 82 82 80 81 81 82 81 82 81 82 83 83 84
74 76 76 77 78 78 79 78 78 83 82 83 84 89 91 90 90 88 87 85 85 84 84 85 84 82 82 81 80 81 82 81 80 82 81 81 81 83 83 83 85 86
75 75 75 76 76 77 77 79 80 79 79 79 79 81 84 85 88 88 87 87 85 84 84 85 85 86 83 79 79 82 81 84 82 80 81 81 80 80 82 83 86 87
75 75 74 75 75 76 77 76 76 77 76 76 77 77 77 77 80 84 88 88 88 86 85 86 88 88 79 72 73 76 83 82 82 79 78 80 81 79 79 82 83 84
75 76 76 76 77 77 75 74 75 75 75 75 76 77 75 78 78 78 79 84 88 88 87 87 87 82 74 71 72 71 76 84 83 83 82 79 80 81 81 81 82 83
75 75 76 76 76 76 75 75 75 74 74 75 76 76 77 76 77 79 79 80 83 82 86 87 87 78 71 70 70 70 70 78 85 84 83 83 81 80 81 80 80 80
74 74 74 75 75 75 75 75 74 75 75 74 75 75 75 77 78 79 79 79 80 81 81 85 87 80 70 68 68 68 69 73 85 85 84 84 83 82 83 81 80 80
73 73 73 74 75 75 74 75 75 74 75 75 75 74 74 74 75 77 78 79 81 83 83 85 88 77 70 67 65 65 67 70 83 85 85 85 84 84 82 83 82 82
73 72 72 73 74 73 73 73 74 74 74 74 75 74 74 74 74 76 77 79 80 82 82 82 85 73 68 66 63 63 65 74 79 81 83 84 84 83 83 82 82 82
73 73 72 72 73 73 73 72 72 73 74 74 73 74 74 75 75 76 77 79 80 80 79 79 80 74 67 65 62 60 64 71 75 79 81 82 84 84 84 83 81 81
74 73 73 72 72 72 73 73 73 73 73 75 74 74 74 75 76 76 78 79 80 79 80 78 79 74 62 58 60 59 64 72 74 76 79 80 82 83 83 83 84 85
74 74 73 72 72 72 72 72 72 72 73 74 74 75 75 75 77 77 78 79 82 83 82 81 79 71 64 66 65 62 63 69 73 75 76 79 80 81 82 83 83 84
74 73 72 73 71 71 71 72 73 73 73 73 74 74 75 76 77 76 77 79 80 82 84 80 74 75 73 62 62 61 60 69 71 73 75 78 80 80 81 82 82 83
MSLP
1018.26 1018.34 1018.58 1018.78 1018.98 1019.14 1019.34 1019.58 1019.70 1019.94 1020.10 1020.14 1020.38 1020.46 1020.50 1020.38 1020.18 1020.34 1020.42 1020.46 1020.58 1020.66 1020.66 1020.74 1020.70 1020.78 1020.74 1020.82 1020.82 1020.90 1021.06 1021.22 1021.18 1021.10 1021.18 1021.26 1021.34 1021.38 1021.42 1021.22 1021.10 1021.14
1018.22 1018.30 1018.38 1018.58 1018.78 1018.86 1019.06 1019.14 1019.46 1019.66 1019.86 1019.90 1019.98 1020.02 1020.06 1020.06 1020.14 1020.18 1020.34 1020.46 1020.54 1020.66 1020.62 1020.70 1020.70 1020.78 1020.86 1020.98 1020.98 1021.14 1021.26 1021.22 1021.30 1020.98 1021.26 1021.38 1021.34 1021.30 1021.34 1021.22 1021.10 1020.90
1018.10 1018.30 1018.46 1018.70 1018.78 1018.86 1018.98 1018.94 1019.10 1019.34 1019.54 1019.62 1019.62 1019.70 1019.90 1019.78 1020.02 1020.06 1020.14 1020.30 1020.50 1020.62 1020.62 1020.66 1020.78 1020.82 1020.86 1020.94 1021.02 1021.18 1021.30 1021.34 1021.42 1021.18 1021.22 1021.38 1021.22 1021.34 1021.22 1021.06 1021.06 1020.94
1017.90 1018.02 1018.26 1018.38 1018.50 1018.66 1018.74 1018.94 1019.06 1019.18 1019.22 1019.50 1019.62 1019.50 1019.58 1019.58 1019.78 1020.06 1020.18 1020.22 1020.42 1020.58 1020.58 1020.62 1020.74 1020.78 1020.86 1020.94 1021.02 1021.22 1021.22 1021.26 1021.22 1021.14 1021.30 1021.22 1021.14 1021.14 1021.18 1020.98 1020.98 1021.06
1017.70 1017.90 1017.94 1018.14 1018.22 1018.34 1018.50 1018.82 1019.02 1019.06 1019.14 1019.14 1019.22 1019.30 1019.42 1019.62 1019.78 1020.02 1020.18 1020.34 1020.34 1020.54 1020.58 1020.70 1020.70 1020.78 1020.82 1020.98 1021.06 1021.30 1021.26 1021.34 1021.14 1021.14 1021.34 1021.42 1021.18 1021.14 1021.06 1021.02 1021.10 1021.18
1017.30 1017.46 1017.70 1017.94 1018.10 1018.30 1018.50 1018.66 1018.66 1018.82 1018.90 1019.06 1019.10 1019.10 1019.26 1019.46 1019.66 1019.82 1020.06 1020.30 1020.34 1020.46 1020.62 1020.62 1020.74 1020.74 1020.78 1020.94 1021.06 1021.22 1021.26 1021.34 1021.18 1021.18 1021.38 1021.46 1021.34 1021.06 1021.02 1020.98 1021.02 1021.10
1017.22 1017.30 1017.58 1017.66 1017.94 1018.06 1018.30 1018.38 1018.46 1018.50 1018.58 1018.70 1018.78 1019.06 1019.06 1019.38 1019.58 1019.66 1019.82 1019.98 1020.18 1020.34 1020.50 1020.66 1020.74 1020.78 1020.70 1020.82 1021.02 1021.22 1021.18 1021.18 1021.14 1021.18 1021.38 1021.38 1021.30 1021.30 1021.02 1021.02 1021.02 1021.02
1016.94 1016.98 1017.18 1017.42 1017.78 1017.94 1018.18 1018.22 1018.30 1018.38 1018.34 1018.46 1018.82 1018.78 1018.82 1019.14 1019.30 1019.46 1019.54 1019.74 1020.02 1020.22 1020.30 1020.42 1020.50 1020.54 1020.62 1020.70 1020.98 1021.14 1021.18 1021.02 1021.14 1021.26 1021.38 1021.38 1021.30 1021.42 1021.18 1020.98 1021.02 1021.10
1016.98 1017.02 1017.02 1017.30 1017.58 1017.74 1017.98 1018.06 1018.06 1018.14 1018.14 1018.42 1018.58 1018.66 1018.58 1018.74 1019.06 1019.18 1019.42 1019.58 1019.78 1019.98 1020.10 1020.26 1020.30 1020.34 1020.34 1020.54 1020.74 1020.90 1021.06 1021.06 1020.94 1021.06 1021.26 1021.42 1021.42 1021.30 1021.18 1020.90 1020.98 1021.06
1016.86 1017.02 1017.22 1017.22 1017.46 1017.50 1017.70 1017.74 1017.78 1017.90 1017.94 1018.18 1018.30 1018.34 1018.58 1018.54 1018.62 1018.86 1019.14 1019.42 1019.62 1019.78 1019.86 1019.98 1020.10 1020.14 1020.14 1020.22 1020.42 1020.62 1020.78 1020.86 1020.82 1020.82 1020.86 1020.94 1020.98 1020.98 1020.90 1020.86 1020.94 1021.02
1017.06 1017.02 1017.34 1017.54 1017.38 1017.34 1017.46 1017.46 1017.54 1017.66 1017.74 1017.94 1018.06 1018.22 1018.18 1018.38 1018.50 1018.54 1018.86 1019.18 1019.50 1019.58 1019.66 1019.74 1019.78 1019.90 1020.02 1020.02 1020.10 1020.18 1020.34 1020.50 1020.58 1020.62 1020.66 1020.62 1020.58 1020.58 1020.54 1020.62 1020.70 1020.78
1017.06 1017.22 1017.34 1017.50 1017.62 1017.46 1017.34 1017.30 1017.34 1017.46 1017.54 1017.58 1017.70 1017.94 1017.98 1017.98 1018.22 1018.38 1018.58 1018.90 1019.02 1019.18 1019.26 1019.42 1019.46 1019.58 1019.70 1019.82 1019.86 1019.94 1020.10 1020.18 1020.22 1020.34 1020.38 1020.38 1020.34 1020.30 1020.26 1020.22 1020.38 1020.38
1017.30 1017.30 1017.30 1017.34 1017.30 1017.34 1017.42 1017.54 1017.46 1017.26 1017.30 1017.46 1017.30 1017.54 1017.74 1017.90 1017.86 1018.06 1018.10 1018.34 1018.58 1018.74 1018.94 1019.06 1019.26 1019.34 1019.46 1019.58 1019.62 1019.66 1019.86 1020.06 1020.10 1020.10 1020.10 1020.14 1020.06 1020.02 1019.94 1019.90 1019.86 1019.90
1017.18 1017.22 1017.26 1017.22 1017.22 1017.34 1017.30 1017.42 1017.70 1017.78 1017.46 1016.98 1016.94 1017.22 1017.30 1017.42 1017.62 1017.70 1017.74 1017.86 1018.06 1018.30 1018.38 1018.54 1018.86 1019.10 1019.22 1019.30 1019.38 1019.46 1019.58 1019.78 1019.82 1019.90 1019.98 1019.90 1019.78 1019.74 1019.66 1019.62 1019.58 1019.54
1016.94 1016.98 1017.02 1017.10 1017.10 1017.14 1017.26 1017.38 1017.50 1017.86 1017.74 1017.50 1017.14 1016.66 1016.58 1016.74 1016.82 1017.02 1017.42 1017.66 1017.66 1017.82 1018.02 1018.14 1018.46 1018.70 1018.82 1018.98 1019.18 1019.30 1019.26 1019.50 1019.58 1019.62 1019.70 1019.78 1019.70 1019.58 1019.42 1019.34 1019.26 1019.18
1016.74 1016.74 1016.90 1016.98 1017.06 1017.10 1017.22 1017.42 1017.50 1017.50 1017.78 1017.58 1017.30 1017.26 1016.98 1016.62 1016.42 1016.50 1016.82 1017.14 1017.46 1017.58 1017.66 1017.86 1018.02 1018.06 1018.18 1018.30 1018.50 1018.82 1019.06 1019.14 1019.30 1019.38 1019.42 1019.42 1019.54 1019.54 1019.42 1019.18 1019.02 1018.86
1016.94 1016.94 1016.86 1016.98 1017.02 1017.02 1016.98 1017.06 1017.14 1017.26 1017.38 1017.46 1017.34 1017.22 1017.06 1016.98 1017.10 1017.10 1016.74 1016.62 1016.86 1017.18 1017.46 1017.50 1017.50 1017.46 1017.58 1017.86 1018.06 1018.22 1018.50 1018.86 1019.10 1019.26 1019.22 1019.26 1019.26 1019.34 1019.38 1019.14 1018.86 1018.62
1017.10 1017.02 1017.06 1017.02 1016.90 1017.02 1017.02 1016.94 1017.10 1017.30 1017.30 1017.30 1017.30 1017.10 1017.02 1017.06 1017.06 1017.14 1017.26 1017.18 1016.86 1016.70 1016.90 1016.98 1016.98 1016.90 1017.14 1017.42 1017.62 1017.86 1018.02 1018.30 1018.58 1018.82 1018.98 1019.10 1019.06 1018.98 1018.90 1018.82 1018.74 1018.54
1017.30 1017.26 1017.22 1017.18 1017.10 1017.02 1016.90 1016.90 1017.02 1017.10 1017.22 1017.26 1017.26 1017.10 1017.02 1017.02 1016.86 1016.86 1016.98 1016.98 1017.18 1017.22 1016.82 1016.58 1016.66 1016.54 1016.86 1017.02 1017.22 1017.46 1017.66 1017.90 1018.06 1018.22 1018.50 1018.62 1018.66 1018.66 1018.62 1018.54 1018.50 1018.46
1017.58 1017.58 1017.58 1017.38 1017.14 1017.06 1017.02 1017.06 1017.14 1017.10 1017.06 1017.10 1017.06 1017.06 1017.18 1017.06 1016.94 1016.78 1016.58 1016.62 1016.70 1016.90 1016.98 1016.58 1016.30 1016.30 1016.54 1016.78 1016.94 1017.10 1017.22 1017.50 1017.58 1017.70 1017.90 1018.02 1018.10 1018.14 1018.14 1018.14 1018.14 1018.18
1017.62 1017.70 1017.82 1017.70 1017.42 1017.30 1017.26 1017.22 1017.18 1017.18 1017.18 1017.10 1017.02 1017.10 1017.22 1017.18 1016.98 1016.70 1016.46 1016.42 1016.42 1016.50 1016.62 1016.66 1016.34 1016.06 1016.30 1016.58 1016.78 1016.94 1017.02 1017.26 1017.18 1017.22 1017.38 1017.50 1017.50 1017.54 1017.58 1017.58 1017.58 1017.58
1017.74 1017.86 1018.02 1018.02 1017.78 1017.62 1017.54 1017.46 1017.30 1017.18 1017.22 1017.14 1017.26 1017.22 1017.06 1016.94 1016.94 1016.90 1016.82 1016.74 1016.58 1016.58 1016.66 1016.74 1016.34 1016.30 1016.74 1016.90 1016.98 1017.10 1017.06 1017.30 1017.22 1017.26 1017.26 1017.22 1017.18 1017.10 1017.10 1017.06 1016.98 1017.06
1017.74 1017.82 1018.02 1018.14 1017.90 1017.74 1017.70 1017.66 1017.58 1017.34 1017.10 1017.10 1017.42 1017.26 1017.14 1016.94 1016.74 1016.54 1016.34 1016.46 1016.54 1016.46 1016.62 1016.62 1016.54 1016.22 1016.18 1016.82 1017.18 1017.34 1017.86 1018.02 1017.74 1017.42 1017.26 1017.14 1016.94 1016.70 1016.66 1016.62 1016.66 1016.62
1017.74 1017.62 1017.58 1017.66 1017.66 1017.70 1017.66 1017.54 1017.38 1017.30 1017.30 1017.10 1017.30 1017.26 1017.14 1016.86 1016.62 1016.50 1016.30 1016.26 1016.34 1016.34 1016.18 1016.38 1016.42 1016.26 1016.22 1016.06 1016.10 1016.46 1016.94 1017.38 1017.66 1017.86 1017.58 1017.06 1016.66 1016.34 1016.26 1016.26 1016.14 1016.10
1017.90 1017.82 1017.74 1017.58 1017.58 1017.70 1017.82 1017.98 1017.94 1017.94 1017.70 1017.46 1017.22 1016.94 1016.78 1016.54 1016.46 1016.50 1016.34 1016.14 1015.98 1015.86 1015.66 1015.86 1016.06 1015.74 1015.18 1014.86 1014.82 1015.14 1015.74 1016.18 1016.46 1016.74 1017.14 1017.02 1016.70 1016.34 1015.98 1015.90 1015.86 1015.70
1018.10 1018.14 1018.10 1018.06 1018.06 1017.98 1018.06 1018.18 1018.14 1018.18 1018.14 1017.70 1017.18 1016.82 1016.62 1016.38 1016.26 1016.26 1016.34 1016.10 1015.78 1015.66 1015.58 1015.54 1015.66 1015.30 1014.98 1015.10 1015.38 1015.54 1016.06 1016.22 1016.18 1016.54 1016.70 1016.42 1016.26 1016.22 1016.14 1015.74 1015.54 1015.46
Wind_Speed
5 3 5 5 6 6 6 5 4 6 6 4 5 4 5 5 6 4 7 5 5 4 5 4 3 3 2 1 2 2 1 2 3 3 4 3 3 3 5 4 3 3
6 4 4 4 5 5 6 6 5 6 6 5 4 4 3 5 5 5 7 5 4 5 4 4 3 3 3 3 3 2 1 1 2 1 3 2 4 4 5 4 4 3
6 5 5 6 6 5 7 6 6 5 6 6 6 5 3 4 4 6 6 6 5 4 5 4 4 4 3 3 3 3 2 1 2 2 3 3 3 3 3 3 3 4
6 6 6 6 5 6 5 6 6 5 5 5 6 6 5 3 4 5 4 6 6 4 4 4 4 3 3 3 3 3 3 3 3 3 3 3 3 2 3 3 3 3
7 6 6 5 5 6 5 7 7 6 5 6 5 5 7 3 4 3 5 5 6 4 4 5 4 4 4 3 4 3 3 4 3 3 3 3 3 3 3 3 4 3
7 6 6 5 5 6 7 6 7 7 6 6 7 5 7 6 6 6 4 4 4 4 5 5 4 4 5 4 4 3 3 4 3 3 3 3 3 3 3 4 4 4
8 8 7 6 6 5 8 6 6 6 7 6 6 6 6 6 7 7 6 6 4 4 4 5 5 4 5 5 4 4 4 3 3 4 4 3 3 4 4 3 4 4
9 8 7 6 7 6 6 7 6 6 7 5 7 7 6 6 8 5 7 7 6 5 4 4 6 6 5 5 5 5 5 4 3 4 5 4 4 4 5 5 3 3
1 5 9 7 8 7 6 6 7 6 6 7 6 7 6 6 6 6 7 7 7 7 7 5 6 7 6 5 6 6 6 5 4 4 5 5 5 5 5 4 4 3
4 0 4 9 9 8 7 6 6 7 5 7 7 6 7 7 7 7 6 7 7 7 8 7 7 7 7 6 7 7 7 6 6 5 5 6 6 6 5 4 4 4
2 3 1 4 8 8 7 8 7 6 7 7 7 6 7 7 7 7 7 6 8 8 7 7 7 7 7 7 6 6 7 7 7 5 5 6 6 6 6 6 6 6
5 3 3 2 4 2 6 7 7 6 7 8 8 7 5 8 9 8 8 9 7 8 7 7 6 7 8 8 7 5 6 7 7 7 6 6 6 7 6 6 6 7
3 4 2 2 2 1 3 5 3 6 7 8 9 9 8 6 8 9 9 10 9 8 8 7 7 6 7 7 7 6 6 6 7 7 7 6 5 7 7 7 7 6
3 4 2 1 1 0 2 2 4 8 7 6 9 11 11 10 7 9 9 10 10 10 9 8 7 6 6 6 7 7 7 6 7 7 7 7 7 6 6 6 6 7
3 3 3 3 0 1 1 2 5 5 6 8 5 10 12 12 10 9 10 9 10 11 10 9 9 8 7 7 7 7 7 7 7 8 8 8 8 8 8 8 8 7
3 2 3 3 2 0 1 3 1 1 1 1 4 7 4 5 11 10 9 12 10 10 10 10 9 8 10 15 12 8 7 8 6 7 8 8 8 8 8 9 9 9
2 2 2 3 2 3 3 3 5 2 1 2 1 0 1 3 6 5 7 9 12 11 11 11 10 10 16 16 16 16 10 8 8 7 6 7 8 8 8 9 8 8
6 4 4 4 4 4 2 2 1 2 3 2 2 2 1 1 1 1 5 5 6 10 11 11 11 13 17 17 18 18 15 11 9 9 8 7 7 9 9 8 8 8
7 7 5 4 3 1 0 2 2 3 4 3 3 2 3 3 4 3 3 2 5 5 10 11 10 14 16 18 19 19 19 16 10 10 11 10 9 9 9 8 8 8
7 6 6 5 3 3 2 1 2 4 3 2 3 3 3 3 2 4 4 5 4 4 6 8 10 13 17 17 18 19 20 17 12 12 11 11 11 11 9 9 9 9
6 5 4 4 3 3 3 3 2 4 5 4 3 3 2 3 4 4 5 4 5 5 5 6 7 12 16 17 17 18 19 17 13 12 11 11 11 11 11 11 10 10
4 5 4 4 3 3 4 3 3 3 4 4 4 3 2 3 3 3 4 4 4 5 6 6 5 6 2 5 11 13 16 11 11 11 11 11 11 11 10 10 10 10
3 2 3 3 3 4 3 4 6 7 5 3 5 5 5 4 4 5 4 5 5 4 4 5 5 9 10 3 3 7 5 6 7 8 10 11 12 11 11 10 9 8
7 2 2 2 3 5 6 6 6 6 7 7 5 5 4 4 4 4 4 4 5 6 5 4 4 4 8 5 5 8 8 5 5 7 10 11 12 12 10 9 11 16
6 6 4 4 2 2 1 3 4 5 8 7 7 5 5 4 4 4 4 5 5 5 5 5 4 4 8 10 12 10 10 7 7 7 9 11 11 11 10 10 10 12
4 3 4 5 3 2 2 3 4 4 6 6 6 6 5 4 4 4 5 4 4 4 7 3 7 7 9 11 8 11 6 4 4 5 8 11 11 11 10 10 10 10
Wind_Direction
177 164 161 150 153 155 159 162 158 160 171 170 172 183 183 190 200 172 181 168 177 178 188 188 182 169 185 201 130 113 105 173 173 189 198 199 222 255 279 282 299 273
180 171 165 150 157 150 165 165 170 164 169 178 180 190 194 185 192 169 172 177 169 180 184 177 179 182 196 178 161 153 191 125 193 176 206 183 210 237 264 268 257 298
172 171 169 173 173 170 167 168 173 172 175 177 182 187 201 194 163 173 165 167 182 170 177 165 174 196 196 178 164 169 181 192 224 250 193 221 229 252 270 281 279 261
180 178 180 182 175 180 170 169 175 182 177 171 175 181 190 181 145 163 171 168 174 177 176 174 182 191 199 181 183 189 195 202 212 202 206 227 218 248 273 284 279 275
179 183 183 184 185 180 177 176 180 184 175 180 173 164 179 173 177 154 159 173 177 181 183 183 185 187 195 192 186 203 207 208 224 209 188 194 230 237 266 271 271 271
179 181 182 189 189 184 188 185 185 182 184 177 184 169 182 181 178 177 167 176 177 175 184 190 189 191 190 187 186 195 213 205 219 206 196 198 237 235 236 251 256 270
185 179 186 186 196 192 192 192 193 184 187 186 179 182 185 175 181 177 172 177 181 198 181 188 198 199 190 187 179 195 221 219 218 203 203 224 227 261 272 256 239 235
187 184 188 181 197 200 194 194 196 190 188 182 181 191 182 173 178 174 177 172 184 195 213 196 191 200 202 184 188 190 211 223 218 203 210 212 212 229 257 266 254 225
322 204 186 194 193 204 201 196 197 193 186 193 185 191 191 180 176 178 173 180 185 187 205 209 197 194 202 187 192 192 200 217 228 198 197 213 215 220 229 247 262 248
182 248 242 198 203 199 206 207 194 194 186 194 196 187 191 193 185 186 173 183 191 191 199 205 197 198 199 192 190 193 197 207 223 226 210 204 207 212 218 227 238 246
227 181 248 271 212 204 209 204 206 198 194 194 196 199 189 186 191 188 190 180 194 198 199 205 196 197 200 202 196 195 197 203 214 222 220 219 216 212 215 215 226 233
187 193 187 174 331 273 220 212 207 211 198 199 199 206 201 192 182 191 192 195 193 198 196 202 201 194 200 206 204 195 202 206 208 218 221 215 220 220 220 214 218 225
195 195 140 87 156 199 15 347 299 225 210 203 199 204 211 201 197 188 191 193 198 193 196 195 200 201 199 204 209 206 200 205 212 213 223 226 216 218 221 223 221 222
126 107 110 121 163 131 324 336 358 347 304 226 194 201 203 211 206 200 189 191 196 198 201 195 192 200 204 203 207 208 206 210 208 211 217 224 231 228 225 224 224 226
108 103 109 121 110 320 335 53 360 341 359 337 284 209 198 206 214 194 195 194 195 196 200 200 198 200 199 202 207 214 211 211 216 217 213 219 223 226 227 229 232 232
122 119 122 122 119 112 82 95 120 86 82 359 31 347 304 239 213 202 190 196 195 197 197 199 204 204 202 202 201 205 214 221 221 222 223 220 218 225 229 227 229 231
49 106 132 111 130 143 130 151 156 165 212 200 163 251 350 40 8 298 231 194 197 196 198 202 205 207 201 200 204 206 207 216 225 232 231 228 225 220 226 229 233 230
23 28 57 52 76 107 139 196 169 189 228 214 228 164 177 311 355 4 336 305 234 204 201 205 207 207 198 199 203 206 209 215 219 227 229 230 233 231 228 229 232 234
33 31 37 55 58 79 191 176 168 187 202 226 241 203 179 199 220 235 271 299 301 260 219 208 212 207 201 199 202 205 209 211 222 220 224 228 229 231 233 232 231 236
51 38 24 15 33 18 347 261 255 250 250 219 210 207 210 214 251 254 247 249 250 268 257 233 215 209 205 205 205 207 209 208 219 220 222 226 226 227 230 229 228 230
64 48 26 1 357 357 359 350 310 303 307 296 266 256 240 234 231 225 233 249 266 273 284 257 231 206 205 209 212 212 214 208 219 222 224 226 227 226 227 227 227 228
69 70 35 347 352 349 343 353 335 306 294 295 303 302 252 243 269 278 285 286 276 274 278 292 304 332 39 243 241 233 224 215 222 226 227 229 230 228 226 227 227 226
5 70 85 10 10 5 343 339 333 322 304 282 276 271 258 242 238 237 227 239 256 251 239 266 288 294 306 65 172 251 275 270 262 245 235 236 235 232 231 229 226 221
346 328 31 20 37 15 1 336 330 331 327 320 283 262 260 255 257 264 256 248 251 254 241 236 242 345 23 30 107 143 172 215 243 260 263 245 239 237 235 236 235 233
347 354 3 343 356 15 26 334 316 316 310 299 292 276 256 252 256 260 261 252 246 252 246 215 134 167 196 227 232 200 164 177 192 209 240 250 249 245 237 237 240 242
350 355 353 337 290 227 208 216 220 230 251 281 288 281 280 270 255 247 256 260 254 257 262 176 178 222 223 221 243 264 195 190 221 216 235 239 239 243 243 236 235 237